STARLINK-1689 (46372 NORAD) Tracking and Keplerian Element Data

This shows tracking and keplerian element data for the satellite.

Feedback or suggestion? Click here.




ElementValue
Catalog46372
NameSTARLINK-1689
Epoch Orbit180
Epoch Day335.91670139
Epoch Year2020
RAAN17.2493
Inclination53.0013
Eccentricity0.0001241
Argument of Perigee87.4805
Mean Anonmoly13.8581
Mean Motion15.0556278
Decay Rate0.00019186
L11 46372U 20062AZ 20335.91670139 .00019186 00000-0 13330-2 0 9998
L22 46372 53.0013 17.2493 0001241 87.4805 13.8581 15.05562780 1806

Live tracking and technical data element details for STARLINK-1689 (NORAD 46372). STARLINK-1689 can be tracked NOW for your location showing map with azimuth and elevation plus other details from your city location.

Track the satellite on the map from your city or location and see movement details for azimuth, elevation, latitude, longitude, range, height, and movement on the map or in text.







IsCatalogInMostPopularTable: catalog: 46372, numindb: 30
Update: records affected: 1



GetName: 46372 STARLINK-1689

Hit Count: updated at: Wed, 02 Dec 2020 05:47:50 GMT